STARLINK-34766

Last updated on Tue Dec 16 2025 00:02:05 GMT+0000 (Coordinated Universal Time)

1 66505U 25263W 25349.20145725 -.00301061 00000+0 -71432-2 0 9990 2 66505 42.9993 110.7711 0002132 255.0077 105.0544 15.42103885 5946
UTC large
Height (km)
Speed (km/s)
/
Latitude / Longitude
Inclination (degrees)
Orbital Period (minutes)
Azimuth
Elevation
Range (km)
Doppler Factor

Next 0 passes for location: London (51.5072 / 0.1276)

Sorry there are no passes over London.